Location: Long Geng
(2.6167°N, 114.1333°E)
Time: 05:46:18
(UTC+00:00)

Meteosat 1 Rocket2 - Pass Details

Date: 14 May 2021
Orbit: 485 x 2306 km, 28.3° (Epoch: 13 June)

Event Time Altitude Azimuth Distance (km) Brightness Sun altitude
Rises 12:22:39 0° 249° (WSW) 2,536 6.8 -27.9°
Reaches altitude 10° 12:24:41 10° 254° (WSW) 1,694 5.9 -28.4°
Enters shadow 12:26:43 30° 269° (W) 951 4.5 -28.9°
